IK1EJA-5 Weather Reports


time (UTC)temp
C
wind
direction
speed
KPH
gust
KPH
rain 1hr
cm
rain 24hr
cm
rain mn
cm
humidity
%
barometer
mb
20260506215602 -17 82 0.0 0.0 0.00 0.00 3.28 99 1012.7
20260506215102 -17 198 1.6 1.6 0.00 0.00 3.28 99 1012.7
20260506214602 -17 78 0.0 0.0 0.00 0.00 3.28 99 1012.5
20260506214103 -17 77 0.0 1.6 0.00 0.00 3.28 99 1012.6
20260506213602 -17 163 1.6 1.6 0.00 0.00 3.28 99 1012.7
20260506213103 -17 222 1.6 1.6 0.00 0.00 3.28 99 1012.7
20260506212603 -17 82 0.0 1.6 0.00 0.00 3.28 99 1012.5
20260506212102 -17 65 0.0 1.6 0.00 0.00 3.28 99 1012.5
20260506211603 -17 222 1.6 1.6 0.00 0.00 3.28 99 1012.5
20260506211102 -17 86 0.0 0.0 0.00 0.00 3.28 99 1012.5
20260506210603 -17 47 0.0 0.0 0.00 0.00 3.28 99 1012.6
20260506205602 -17 53 0.0 0.0 0.00 0.00 3.28 99 1012.5
20260506205102 -17 77 0.0 0.0 0.00 0.00 3.28 99 1012.5
20260506204602 -17 83 0.0 1.6 0.00 0.00 3.28 99 1012.7
20260506204103 -17 206 1.6 1.6 0.00 0.00 3.28 99 1012.6
20260506203602 -17 50 0.0 1.6 0.00 0.00 3.28 99 1012.5
20260506203103 -17 7 0.0 0.0 0.00 0.00 3.28 99 1012.5
20260506202603 -17 335 1.6 1.6 0.00 0.00 3.28 99 1012.5
20260506202103 -17 49 0.0 0.0 0.00 0.00 3.28 99 1012.3
20260506201603 -17 44 0.0 0.0 0.00 0.00 3.28 99 1012.3
20260506201102 -17 61 0.0 0.0 0.00 0.00 3.28 99 1012.5
20260506200603 -17 167 0.0 1.6 0.00 0.00 3.28 99 1012.2
20260506195603 -17 133 1.6 3.2 0.00 0.00 3.28 99 1012.1
20260506195102 -17 164 1.6 1.6 0.00 0.00 3.28 99 1012.0
20260506194603 -17 135 3.2 3.2 0.00 0.00 3.28 98 1012.0
20260506194103 -17 166 3.2 3.2 0.00 0.00 3.28 99 1011.7
20260506193603 -17 81 1.6 3.2 0.00 0.00 3.28 99 1011.8
20260506193103 -17 79 0.0 1.6 0.00 0.00 3.28 99 1011.7
20260506192602 -17 65 0.0 0.0 0.00 0.00 3.28 99 1011.7
20260506192102 -17 187 1.6 1.6 0.00 0.00 3.28 98 1011.5
20260506191602 -17 7 0.0 0.0 0.00 0.00 3.28 98 1011.6
20260506191102 -17 44 1.6 1.6 0.00 0.00 3.28 98 1011.6
20260506190603 -17 118 1.6 1.6 0.00 0.00 3.28 98 1011.2
20260506185602 -17 35 0.0 0.0 0.00 0.00 3.28 96 1011.2
20260506185103 -17 80 0.0 1.6 0.00 0.00 3.28 95 1011.2
20260506184603 -17 56 0.0 1.6 0.00 0.00 3.28 95 1011.2
20260506184103 -17 49 0.0 0.0 0.00 0.00 3.28 94 1011.2
20260506183603 -17 191 1.6 3.2 0.00 0.00 3.28 93 1011.0
20260506183102 -17 100 1.6 1.6 0.00 0.00 3.28 93 1011.0
20260506182602 -17 130 1.6 3.2 0.00 0.00 3.28 93 1010.7
20260506182103 -17 198 3.2 4.8 0.00 0.00 3.28 93 1010.7
20260506181603 -17 157 1.6 1.6 0.00 0.00 3.28 92 1010.8
20260506181102 -17 128 0.0 1.6 0.00 0.00 3.28 90 1010.7
20260506180602 -17 80 0.0 1.6 0.00 0.00 3.28 90 1010.7
20260506175603 -17 119 1.6 3.2 0.00 0.00 3.28 88 1010.7
20260506175103 -17 192 6.4 6.4 0.00 0.00 3.28 88 1010.6
20260506174602 -17 148 4.8 4.8 0.00 0.00 3.28 88 1010.3
20260506174103 -17 128 6.4 8.0 0.00 0.00 3.28 88 1010.3
20260506173603 -17 169 3.2 4.8 0.00 0.00 3.28 88 1010.3
20260506173103 -17 10 1.6 3.2 0.00 0.00 3.28 88 1010.2
20260506172603 -17 173 4.8 6.4 0.00 0.00 3.28 87 1010.1
20260506172102 -17 165 8.0 9.7 0.00 0.00 3.28 88 1010.3
20260506171602 -17 184 4.8 6.4 0.00 0.00 3.28 87 1010.3
20260506171102 -17 172 9.7 14.5 0.00 0.00 3.28 87 1010.2
20260506170602 -17 118 6.4 6.4 0.00 0.00 3.28 87 1010.2
20260506170104 -17 161 3.2 4.8 0.00 0.00 3.28 87 1010.1
20260506165603 -17 214 3.2 4.8 0.00 0.00 3.28 87 1010.2
20260506165102 -17 36 3.2 3.2 0.00 0.00 3.28 85 1010.2
20260506164603 -17 185 4.8 6.4 0.00 0.00 3.28 87 1010.2
20260506164102 -17 169 4.8 6.4 0.00 0.00 3.28 86 1010.1
20260506163602 -17 12 0.0 1.6 0.00 0.00 3.28 87 1010.2
20260506163102 -17 187 8.0 9.7 0.00 0.00 3.28 87 1010.2
20260506162603 -17 145 6.4 8.0 0.00 0.00 3.28 88 1010.2
20260506162103 -17 114 8.0 9.7 0.00 0.00 3.28 86 1010.2
20260506161602 -17 167 8.0 9.7 0.00 0.00 3.28 87 1010.2
20260506161102 -17 174 8.0 9.7 0.00 0.00 3.28 86 1010.2
20260506160603 -17 123 3.2 4.8 0.00 0.00 3.28 86 1010.1
20260506155602 -17 152 6.4 8.0 0.00 0.00 3.28 86 1010.2
20260506155102 -17 180 0.0 1.6 0.00 0.00 3.28 87 1010.2
20260506154603 -17 146 3.2 3.2 0.00 0.00 3.28 88 1010.1
20260506154103 -17 161 4.8 4.8 0.00 0.00 3.28 87 1010.2
20260506153602 -17 172 8.0 9.7 0.00 0.00 3.28 87 1010.0
20260506153104 -17 185 6.4 8.0 0.00 0.00 3.28 88 1009.8
20260506152602 -17 157 3.2 4.8 0.00 0.00 3.28 87 1009.8
20260506152103 -17 190 11.3 14.5 0.00 0.00 3.28 86 1009.8
20260506151602 -17 149 11.3 14.5 0.00 0.00 3.28 85 1009.7
20260506151102 -17 81 0.0 0.0 0.00 0.00 3.28 84 1010.0
20260506150602 -17 173 6.4 6.4 0.00 0.00 3.28 82 1010.0
20260506145602 -17 204 3.2 3.2 0.00 0.00 3.28 82 1010.0
20260506145103 -17 118 4.8 4.8 0.00 0.00 3.28 82 1009.8
20260506144602 -17 161 8.0 9.7 0.00 0.00 3.28 84 1010.0
20260506144104 -17 72 0.0 0.0 0.00 0.00 3.28 82 1009.8
20260506143604 -17 183 8.0 9.7 0.00 0.00 3.28 82 1009.7
20260506143102 -17 137 3.2 6.4 0.00 0.00 3.28 84 1009.7
20260506142603 -17 183 4.8 4.8 0.00 0.00 3.28 84 1010.0
20260506142102 -17 177 6.4 8.0 0.00 0.00 3.28 83 1009.6
20260506141603 -17 188 4.8 6.4 0.00 0.00 3.28 82 1009.7
20260506141103 -17 176 4.8 4.8 0.00 0.00 3.28 83 1009.7
20260506140603 -17 165 8.0 9.7 0.00 0.00 3.28 85 1009.8
20260506135603 -17 146 3.2 3.2 0.00 0.00 3.28 87 1009.8
20260506135103 -17 142 3.2 4.8 0.00 0.00 3.28 86 1009.7
20260506134603 -17 98 1.6 3.2 0.00 0.00 3.28 88 1010.0
20260506134103 -17 149 11.3 14.5 0.00 0.00 3.28 88 1010.2
20260506133602 -17 114 1.6 3.2 0.00 0.00 3.28 88 1010.2
20260506133103 -17 107 8.0 9.7 0.00 0.00 3.28 89 1010.1
20260506132603 -17 112 8.0 9.7 0.00 0.00 3.28 88 1010.1
20260506132103 -17 165 6.4 8.0 0.00 0.00 3.28 89 1010.1
20260506131603 -17 135 4.8 6.4 0.00 0.00 3.28 89 1010.1
20260506131103 -17 182 3.2 3.2 0.00 0.00 3.28 90 1010.2
20260506130603 -17 144 8.0 9.7 0.00 0.00 3.28 90 1009.8
20260506130103 -17 147 6.4 8.0 0.00 0.00 3.28 90 1010.2
20260506125603 -17 108 9.7 14.5 0.00 0.00 3.28 89 1010.0
20260506125102 -17 181 6.4 8.0 0.00 0.00 3.28 88 1010.0
20260506124603 -17 187 6.4 8.0 0.00 0.00 3.28 88 1010.1
20260506124102 -17 172 9.7 12.9 0.00 0.00 3.28 86 1009.7
20260506123603 -17 136 4.8 6.4 0.00 0.00 3.28 86 1009.8
20260506123103 -17 116 6.4 8.0 0.00 0.00 3.28 87 1010.1
20260506122603 -17 169 3.2 3.2 0.00 0.00 3.28 87 1010.0
20260506122103 -17 161 6.4 6.4 0.00 0.00 3.28 85 1010.1
20260506121603 -17 185 6.4 8.0 0.00 0.00 3.28 86 1009.8
20260506121103 -17 174 11.3 14.5 0.00 0.00 3.28 84 1010.0
20260506120603 -17 182 11.3 14.5 0.00 0.00 3.28 84 1009.8
20260506115602 -17 189 8.0 8.0 0.00 0.00 3.28 84 1010.0
20260506115102 -17 182 12.9 16.1 0.00 0.00 3.28 82 1010.0
20260506114603 -17 198 3.2 4.8 0.00 0.00 3.28 82 1010.0
20260506114102 -17 135 6.4 8.0 0.00 0.00 3.28 83 1009.7
20260506113603 -17 179 9.7 12.9 0.00 0.00 3.28 82 1010.1
20260506113103 -17 212 3.2 4.8 0.00 0.00 3.28 81 1010.0
20260506112603 -17 148 4.8 4.8 0.00 0.00 3.28 83 1010.0
20260506112102 -17 125 3.2 4.8 0.00 0.00 3.28 82 1009.8
20260506111603 -17 90 3.2 4.8 0.00 0.00 3.28 85 1010.1
20260506111103 -17 186 6.4 8.0 0.00 0.00 3.28 85 1010.2
20260506110603 -17 218 4.8 4.8 0.00 0.00 3.28 87 1010.1
20260506105603 -17 172 9.7 14.5 0.00 0.00 3.28 87 1010.1
20260506105103 -17 9 0.0 1.6 0.00 0.00 3.28 88 1010.0
20260506104602 -17 139 12.9 19.3 0.00 0.00 3.28 88 1010.0
20260506104102 -17 152 4.8 8.0 0.00 0.00 3.28 89 1010.0
20260506103603 -17 187 14.5 19.3 0.00 0.00 3.28 89 1009.8
20260506103102 -17 67 3.2 6.4 0.00 0.00 3.28 89 1009.7
20260506102602 -17 57 6.4 6.4 0.00 0.00 3.28 87 1009.8
20260506102103 -17 187 4.8 6.4 0.00 0.00 3.28 86 1009.7
20260506101604 -17 174 1.6 3.2 0.00 0.00 3.28 90 1009.7
20260506101102 -17 55 3.2 4.8 0.00 0.00 3.28 89 1009.7
20260506100602 -17 39 4.8 8.0 0.00 0.00 3.28 88 1009.7
20260506095602 -17 343 0.0 1.6 0.00 0.00 3.28 91 1009.5
20260506095103 -17 248 8.0 9.7 0.00 0.00 3.28 92 1009.7
20260506094602 -17 24 1.6 3.2 0.00 0.00 3.28 92 1009.3
20260506094103 -17 309 9.7 9.7 0.00 0.00 3.28 92 1009.2
20260506093604 -17 345 1.6 1.6 0.00 0.00 3.28 93 1009.3
20260506093102 -17 159 8.0 12.9 0.00 0.00 3.28 93 1009.6
20260506092602 -17 89 9.7 12.9 0.00 0.00 3.28 93 1009.3
20260506092103 -17 151 9.7 19.3 0.00 0.00 3.28 93 1009.2
20260506091603 -17 178 1.6 3.2 0.00 0.00 3.28 93 1009.2
20260506091102 -17 133 0.0 1.6 0.00 0.00 3.28 94 1009.3
20260506090602 -17 230 11.3 14.5 0.00 0.00 3.28 94 1009.5
20260506085602 -17 80 20.9 29.0 0.00 0.00 3.28 94 1009.2
20260506085103 -17 151 14.5 19.3 0.00 0.00 3.28 96 1009.0
20260506084603 -17 126 11.3 16.1 0.00 0.00 3.28 95 1009.1
20260506084102 -17 91 8.0 14.5 0.00 0.00 3.28 96 1008.7
20260506083604 -17 38 8.0 12.9 0.00 0.00 3.28 96 1008.5
20260506083102 -17 174 11.3 14.5 0.00 0.00 3.28 96 1008.3
20260506082602 -17 227 8.0 9.7 0.00 0.00 3.28 96 1008.7
20260506082103 -17 40 11.3 17.7 0.00 0.00 3.28 96 1008.7
20260506081603 -17 176 32.2 41.8 0.00 0.00 3.28 94 1008.5
20260506081103 -17 128 6.4 8.0 0.00 0.00 3.28 95 1008.3
20260506080602 -17 136 25.7 32.2 0.00 0.00 3.28 96 1008.5
20260506073102 -17 126 8.0 12.9 0.00 0.00 3.28 99 1008.3
20260506072605 -17 198 6.4 8.0 0.00 0.00 3.28 99 1008.3
20260506072103 -17 191 20.9 27.4 0.00 0.00 3.28 99 1008.5
20260506071602 -17 178 6.4 8.0 0.00 0.00 3.28 99 1008.6
20260506071103 -17 158 12.9 16.1 0.00 0.00 3.28 99 1008.6
20260506070603 -17 156 3.2 4.8 0.00 0.00 3.28 99 1008.5
20260506062103 -17 177 3.2 3.2 0.18 0.00 3.28 99 1008.5
20260506061603 -17 73 0.0 1.6 0.08 0.00 3.17 99 1008.6
20260506061102 -17 167 1.6 3.2 0.00 0.00 3.07 99 1008.7
20260506060603 -17 24 0.0 0.0 0.00 0.00 3.07 99 1008.5
20260506051102 -17 305 3.2 4.8 0.00 0.00 3.02 99 1008.7
20260506050603 -17 3 1.6 1.6 0.00 0.00 3.02 99 1009.0
20260506050104 -17 308 0.0 1.6 0.00 0.00 3.02 99 1009.2
20260506045102 -17 51 0.0 1.6 0.33 0.00 3.02 99 1009.2
20260506044603 -17 297 1.6 1.6 0.33 0.00 3.02 99 1008.8
20260506044102 -17 285 6.4 6.4 0.33 0.00 3.02 99 1009.2
20260506043603 -17 293 0.0 3.2 0.33 0.00 3.02 99 1009.0
20260506043102 -17 40 0.0 1.6 0.28 0.00 2.97 99 1009.0
20260506042603 -17 7 0.0 0.0 0.10 0.00 2.82 99 1009.2
20260506042102 -17 318 3.2 3.2 0.00 0.00 0.43 99 1009.1
20260506041603 -17 357 1.6 1.6 0.00 0.00 0.43 99 1008.8
20260506041103 -17 22 0.0 1.6 0.00 0.00 0.43 99 1009.1
20260506040603 -17 355 0.0 0.0 0.00 0.00 0.43 99 1009.3
20260506035603 -17 5 0.0 0.0 0.03 0.00 0.43 99 1009.2
20260506035103 -17 307 1.6 1.6 0.03 0.00 0.43 99 1009.6
20260506034602 -17 43 0.0 0.0 0.03 0.00 0.43 99 1009.6
20260506034102 -17 157 3.2 3.2 0.03 0.00 0.43 99 1009.7
20260506033603 -17 128 0.0 1.6 0.03 0.00 0.43 99 1009.2
20260506033102 -17 325 1.6 1.6 0.03 0.00 0.43 99 1009.3
20260506032603 -17 167 1.6 3.2 0.03 0.00 0.43 99 1009.3
20260506032102 -17 325 0.0 1.6 0.03 0.00 0.43 99 1009.6
20260506031602 -17 63 0.0 1.6 0.03 0.00 0.43 99 1009.5
20260506031103 -17 21 0.0 0.0 0.03 0.00 0.43 99 1009.6
20260506030603 -17 2 0.0 1.6 0.00 0.00 0.41 99 1009.7
20260506030103 -17 296 4.8 6.4 0.00 0.00 0.41 99 1009.5
20260506025603 -17 14 3.2 4.8 1.98 0.00 0.38 99 1009.3
20260506025102 -17 347 3.2 4.8 1.65 0.00 2.34 99 1010.1
20260506024603 -17 261 6.4 8.0 1.37 0.00 2.06 99 1009.6
20260506024102 -17 38 3.2 4.8 0.86 0.00 1.55 99 1008.8
20260506023603 -17 350 3.2 6.4 0.71 0.00 1.42 99 1009.3
20260506023102 -17 2 4.8 9.7 0.56 0.00 1.24 99 1009.0
20260506022603 -17 337 3.2 4.8 0.43 0.00 1.12 99 1009.1
20260506022103 -17 328 3.2 4.8 0.30 0.00 0.99 99 1009.3
20260506021602 -17 326 1.6 1.6 0.25 0.00 0.94 99 1009.3
20260506021103 -17 24 0.0 1.6 0.18 0.00 0.86 99 1009.7
20260506020603 -17 181 4.8 6.4 0.10 0.00 0.79 99 1009.7
20260506020103 -17 18 0.0 0.0 0.03 0.00 0.71 99 1009.5
20260506015603 -17 42 0.0 1.6 0.46 0.00 0.51 99 1009.7
20260506015103 -17 347 4.8 6.4 0.20 0.00 0.25 99 1009.7
20260506014603 -17 37 1.6 1.6 0.18 0.00 0.23 99 1009.7
20260506014103 -17 296 6.4 6.4 0.15 0.00 0.20 99 1009.7
20260506013602 -17 345 1.6 3.2 0.13 0.00 0.18 99 1009.8
20260506013110 -17 16 0.0 0.0 0.10 0.00 0.15 99 1010.1
20260506012603 -17 32 0.0 0.0 0.05 0.00 0.10 99 1010.2
20260506012103 -17 347 0.0 0.0 0.03 0.00 0.08 99 1010.3
20260506011603 -17 2 0.0 0.0 0.03 0.00 0.08 99 1009.8
20260506011103 -17 354 0.0 1.6 0.00 0.00 0.05 99 1010.2
20260506010603 -17 352 0.0 1.6 0.00 0.00 0.05 99 1010.5
20260506010103 -17 32 0.0 0.0 0.00 0.00 0.05 99 1010.2
20260506005603 -17 34 0.0 0.0 0.05 0.00 0.05 99 1010.1
20260506005103 -17 347 0.0 1.6 0.05 0.00 0.05 99 1010.3
20260506004604 -17 152 1.6 1.6 0.05 0.00 0.05 99 1010.5
20260506004102 -17 55 0.0 1.6 0.05 0.00 0.05 99 1010.6
20260506003603 -17 89 1.6 1.6 0.03 0.00 0.03 99 1010.7
20260506003102 -17 324 0.0 0.0 0.03 0.00 0.03 99 1010.6
20260506002602 -17 216 3.2 4.8 0.03 0.00 0.03 99 1010.8
20260506002102 -17 152 0.0 1.6 0.03 0.00 0.03 99 1010.7
20260506001602 -17 200 4.8 4.8 0.00 0.00 0.00 99 1011.0
20260506001103 -17 148 6.4 8.0 0.00 0.00 0.00 99 1010.7
20260506000602 -17 68 0.0 1.6 0.00 0.00 0.00 99 1010.6
20260505235602 -17 328 1.6 1.6 0.00 0.00 0.00 99 1010.8
20260505235103 -17 295 1.6 1.6 0.00 0.00 0.00 99 1010.8
20260505234603 -17 322 1.6 1.6 0.00 0.00 0.00 99 1011.0
20260505234102 -17 325 1.6 3.2 0.00 0.00 0.00 99 1011.1
20260505233603 -17 314 1.6 3.2 0.00 0.00 0.00 99 1011.3
20260505233103 -17 332 1.6 3.2 0.00 0.00 0.00 99 1011.7
20260505232603 -17 44 0.0 0.0 0.00 0.00 0.00 99 1011.7
20260505232102 -17 24 0.0 0.0 0.00 0.00 0.00 99 1011.6
20260505231603 -17 315 1.6 3.2 0.00 0.00 0.00 99 1011.6
20260505231103 -17 352 1.6 1.6 0.00 0.00 0.00 99 1011.6
20260505230602 -17 5 1.6 1.6 0.00 0.00 0.00 99 1011.8
20260505225603 -17 47 0.0 1.6 0.03 0.00 3.63 99 1011.7
20260505225103 -17 358 0.0 0.0 0.03 0.00 3.63 99 1012.2
20260505224602 -17 253 1.6 1.6 0.03 0.00 3.63 99 1012.2
20260505224103 -17 345 0.0 0.0 0.03 0.00 3.63 99 1012.0
20260505223603 -17 46 0.0 0.0 0.03 0.00 3.63 99 1012.2
20260505223103 -17 68 0.0 0.0 0.03 0.00 3.63 99 1012.2
20260505222603 -17 85 1.6 1.6 0.03 0.00 3.63 99 1012.2
20260505222103 -17 55 0.0 1.6 0.00 0.00 3.61 99 1012.3
20260505221602 -17 122 0.0 1.6 0.00 0.00 3.61 99 1012.2
20260505221102 -17 289 3.2 3.2 0.00 0.00 3.61 99 1012.5
20260505220603 -17 24 0.0 0.0 0.00 0.00 3.61 99 1012.5